Melilla, Spain

7:59 AM CEST on August 21, 2017 (GMT +0200)
Melilla

Weather History for GEML - November, 2012

Change the Weather History Date:

Tuesday, November 27, 2012

  Actual Average Record
Temperature  
Mean Temperature 60 °F -  
Max Temperature 64 °F 64 °F 78 °F (2002)
Min Temperature 57 °F 53 °F 50 °F (2013)
Degree Days  
Heating Degree Days 4    
Growing Degree Days 10 (Base 50)    
Moisture  
Dew Point 44 °F    
Average Humidity 55    
Maximum Humidity 72    
Minimum Humidity 36    
Precipitation  
Precipitation 0.00 in 0.07 in - ()
Sea Level Pressure  
Sea Level Pressure 29.83 in    
Wind  
Wind Speed 16 mph ()    
Max Wind Speed 24 mph    
Max Gust Speed 45 mph    
Visibility 6.4 miles    
Events Rain    
Averages and records for this station are not official NWS values.
T = Trace of Precipitation, MM = Missing Value Source: Averaged Metar Reports

Daily Weather History Graph

Daily Weather History Graph

Search for Another Location

Airport or City:

Trip Planner

Search our weather history database for the weather conditions in past years. The results will help you decide how hot, cold, wet, or windy it might be!

Date:

Astronomy

Nov. 27, 2012 Rise Set
Actual Time 7:58 AM CET 6:00 PM CET
Civil Twilight 7:31 AM CET 6:27 PM CET
Nautical Twilight 6:59 AM CET 6:59 PM CET
Astronomical Twilight 6:29 AM CET 7:29 PM CET
Moon 5:21 PM CET (11/27) 6:51 AM CET (11/27)
Length of Visible Light 10h 56m
Length of Day
10h 01m
Waxing Gibbous, 99% of the Moon is Illuminated
Nov 27
Waxing Gibbous
Nov 28
Full
Dec 6
Last Quarter
Dec 13
New
Dec 20
First Quarter

Hourly Weather History & Observations

Time (CET) Temp. Dew Point Humidity Pressure Visibility Wind Dir Wind Speed Gust Speed Precip Events Conditions
6:00 AM 59.0 °F 50.0 °F 72% 29.83 in 6.2 mi WSW 11.5 mph - N/A Rain Light Rain
6:30 AM 59.0 °F 50.0 °F 72% 29.83 in 6.2 mi West 11.5 mph - N/A Rain Light Rain
7:00 AM 59 °F 49 °F 60% 29.84 in 12 mi West 12.7 mph - -   Clear
7:00 AM 60.8 °F 51.8 °F 72% 29.83 in 6.2 mi West 12.7 mph 25.3 mph N/A   Scattered Clouds
7:30 AM 59.0 °F 48.2 °F 67% 29.83 in 6.2 mi West 16.1 mph 27.6 mph N/A   Mostly Cloudy
8:00 AM 59.0 °F 46.4 °F 63% 29.83 in 6.2 mi West 19.6 mph 34.5 mph N/A   Mostly Cloudy
8:30 AM 59.0 °F 46.4 °F 63% 29.83 in 6.2 mi West 17.3 mph 34.5 mph N/A   Scattered Clouds
9:00 AM 59.0 °F 46.4 °F 63% 29.83 in 6.2 mi West 19.6 mph 35.7 mph N/A   Scattered Clouds
9:30 AM 59.0 °F 44.6 °F 59% 29.83 in 6.2 mi West 20.7 mph 34.5 mph N/A   Partly Cloudy
10:00 AM 59.0 °F 44.6 °F 59% 29.86 in 6.2 mi West 19.6 mph 34.5 mph N/A   Partly Cloudy
10:30 AM 59.0 °F 44.6 °F 59% 29.86 in 6.2 mi West 20.7 mph 35.7 mph N/A   Partly Cloudy
11:00 AM 60.8 °F 39.2 °F 45% 29.86 in 6.2 mi West 20.7 mph 38.0 mph N/A   Partly Cloudy
11:30 AM 60.8 °F 41.0 °F 48% 29.86 in 6.2 mi West 18.4 mph 32.2 mph N/A   Partly Cloudy
12:00 PM 60.8 °F 42.8 °F 52% 29.86 in 6.2 mi West 21.9 mph 38.0 mph N/A   Partly Cloudy
12:30 PM 60.8 °F 42.8 °F 52% 29.86 in 6.2 mi West 21.9 mph 39.1 mph N/A   Partly Cloudy
1:00 PM 61 °F 45 °F 45% 29.84 in 25 mi West 21.9 mph - -   Scattered Clouds
1:00 PM 60.8 °F 42.8 °F 52% 29.83 in 6.2 mi West 21.9 mph 44.9 mph N/A   Partly Cloudy
1:30 PM 60.8 °F 42.8 °F 52% 29.83 in 6.2 mi West 24.2 mph 39.1 mph N/A   Partly Cloudy
2:00 PM 60.8 °F 42.8 °F 52% 29.83 in 6.2 mi West 20.7 mph 35.7 mph N/A   Partly Cloudy
2:30 PM 60.8 °F 41.0 °F 48% 29.83 in 6.2 mi West 19.6 mph 35.7 mph N/A   Partly Cloudy
3:00 PM 60.8 °F 42.8 °F 52% 29.80 in 6.2 mi West 23.0 mph 36.8 mph N/A   Partly Cloudy
3:30 PM 60.8 °F 44.6 °F 55% 29.80 in 6.2 mi West 20.7 mph 38.0 mph N/A   Partly Cloudy
4:00 PM 59.0 °F 41.0 °F 51% 29.80 in 6.2 mi West 21.9 mph 34.5 mph N/A   Partly Cloudy
4:30 PM 59.0 °F 44.6 °F 59% 29.80 in 6.2 mi West 19.6 mph 35.7 mph N/A   Partly Cloudy
5:00 PM 59.0 °F 39.2 °F 48% 29.80 in - West 21.9 mph 40.3 mph N/A   Clear
5:30 PM 59.0 °F 41.0 °F 51% 29.80 in - West 20.7 mph 38.0 mph N/A   Clear
6:00 PM 59.0 °F 42.8 °F 55% 29.80 in - West 19.6 mph 36.8 mph N/A   Clear
6:30 PM 59.0 °F 39.2 °F 48% 29.80 in - West 19.6 mph 34.5 mph N/A   Clear
7:00 PM 58 °F 38 °F 36% 29.80 in 25 mi West 17.3 mph - -  
7:00 PM 59.0 °F 41.0 °F 51% 29.80 in - West 18.4 mph 29.9 mph N/A   Clear
7:30 PM 59.0 °F 41.0 °F 51% 29.83 in 6.2 mi West 17.3 mph 31.1 mph N/A   Partly Cloudy